[[{"header":{"parameterUnit":"m.s-1","parameterCategory":1,"la1":30.2991,"la2":30.254,"lo1":-89.0895,"lo2":-89.0444,"dx":0.0017,"dy":0.0017,"nx":28,"ny":28,"refTime":"2023-01-14T03:00:00:Z","depth":0,"parameterNumber":2,"parameterNumberName":"U-component_of_WINDS"},"data":[0,0,0,0,0,0,0,0,0,0,0,0,0,0,0,0,0,0,0,0,0,0,0,0,0,0,0,0,0,0,0,0,0,0,0,0,0,0,0,0,0,0,0,0,0,0,0,0,0,0,0,0,0,0,0,0,0,0,-4.5554,-4.5554,0,-4.5584,-4.5584,-4.5585,-4.548,-4.5476,-4.5473,-4.547,-4.5501,-4.5504,-4.5508,0,0,0,0,0,0,0,0,0,0,0,0,0,-4.5404,-4.5407,-4.5554,-4.5554,-4.5554,-4.5584,-4.5584,-4.5585,-4.548,-4.5476,-4.5473,-4.5469,-4.55,-4.5504,-4.5509,0,0,0,0,0,0,0,0,0,0,0,0,0,-4.5455,-4.5408,-4.5554,-4.5506,-4.5502,-4.5584,-4.5584,-4.5585,-4.5481,-4.5476,-4.5472,-4.5467,-4.5498,-4.5504,-4.5509,-4.5639,0,0,-4.5526,-4.5529,0,0,0,0,0,0,0,0,-4.5452,-4.5461,-4.5512,-4.5509,-4.5505,-4.5523,-4.5543,-4.5603,-4.5482,-4.5489,-4.547,-4.5465,-4.5512,-4.5516,-4.5532,-4.564,-4.5641,-4.5527,-4.553,-4.5533,-4.5534,0,0,0,0,0,0,0,-4.5449,-4.5459,-4.5566,-4.5513,-4.5509,-4.5482,-4.5485,-4.5554,-4.5527,-4.5488,-4.548,-4.5485,-4.5509,-4.5527,-4.5532,-4.5642,-4.5527,-4.5532,-4.5535,-4.5537,-4.5856,-4.5861,0,0,0,0,0,0,-4.5452,-4.5457,-4.5565,-4.5566,-4.5467,-4.5489,-4.5491,-4.5522,-4.5526,-4.5522,-4.5489,-4.548,-4.552,-4.5526,-4.5533,-4.5684,-4.5533,-4.5538,-4.5541,-4.5851,-4.5858,-4.5863,0,0,0,0,0,0,-4.5449,-4.5462,-4.5563,-4.551,-4.552,-4.5497,-4.5532,-4.5525,-4.5543,-4.5527,-4.5521,-4.5513,-4.5516,-4.5525,-4.5613,-4.5684,-4.554,-4.5546,-4.5845,-4.5853,-4.586,-4.5988,0,0,0,0,0,0,-4.5445,-4.5462,-4.5511,-4.5511,-4.5524,-4.5644,-4.5536,-4.5529,-4.5553,-4.5542,-4.5547,-4.5544,-4.5513,-4.5605,-4.5619,-4.5689,-4.555,-4.5839,-4.5849,-4.5858,-4.5977,-4.5999,-4.6017,0,0,0,0,0,-4.544,-4.5546,-4.5514,-4.5528,-4.5585,-4.5648,-4.5655,-4.5618,-4.5559,-4.5608,-4.5598,-4.5544,-4.5674,-4.5615,-4.5629,-4.5702,-4.5834,-4.5846,-4.5857,-4.5968,-4.5995,-4.6017,0,0,0,0,0,0,-4.5554,-4.5545,-4.551,-4.5619,-4.5635,-4.563,-4.5691,-4.5647,-4.568,-4.5668,-4.562,-4.5623,-4.5719,-4.5719,-4.5654,-4.5827,-4.5744,-4.5759,-4.5823,-4.5848,-4.5868,-4.5866,-4.5555,0,0,0,0,0,-4.5592,-4.5645,-4.5634,-4.5731,-4.5741,-4.5715,-4.5741,-4.5711,-4.5726,-4.5732,-4.5728,-4.5744,-4.5788,-4.5818,-4.5858,-4.5977,-4.5976,-4.6034,-4.6054,-4.6071,-4.6084,-4.6146,-4.6172,-4.5901,-4.5901,-4.59,0,0,-4.5671,-4.5672,-4.5708,-4.5754,-4.5763,-4.5818,-4.5721,-4.5783,-4.5823,-4.5741,-4.5824,-4.5822,-4.5836,-4.594,-4.5986,-4.5943,-4.6159,-4.6086,-4.6099,-4.6103,-4.6161,-4.6186,-4.6209,-4.5909,-4.5907,-4.5906,0,0,-4.5842,-4.5849,-4.593,-4.5941,-4.5956,-4.5938,-4.5958,-4.596,-4.5955,-4.6038,-4.5977,-4.6024,-4.6102,-4.6115,-4.6131,-4.6308,-4.6259,-4.6323,-4.6427,-4.6488,-4.651,-4.6528,-4.6591,-4.6614,-4.6336,-4.6336,-4.6336,0,-4.5938,-4.6018,-4.5978,-4.6044,-4.6065,-4.5994,-4.6076,-4.6089,-4.6116,-4.6132,-4.6085,-4.6181,-4.6186,-4.6291,-4.6334,-4.6351,-4.6371,-4.6321,-4.651,-4.6528,-4.6545,-4.6604,-4.6628,-4.6344,-4.6343,-4.6342,-4.6341,0,-4.6135,-4.6192,-4.6256,-4.6284,-4.6313,-4.6387,-4.6357,-4.6391,-4.6359,-4.6346,-4.6431,-4.6434,-4.6474,-4.6497,-4.6466,-4.6598,-4.6571,-4.6518,-4.6433,-4.6579,-4.6634,-4.6656,-4.6355,-4.6352,-4.635,-4.6348,0,0,-4.6378,-4.6383,-4.6407,-4.6419,-4.643,-4.6473,-4.6544,-4.6583,-4.6612,-4.6634,-4.6692,-4.6759,-4.671,-4.6729,-4.6699,-4.6753,-4.6892,-4.6693,-4.6692,-4.6729,-4.7037,-4.7076,-4.7103,-4.686,-4.6864,-4.6868,-4.7035,0,-4.6545,-4.6666,-4.6632,-4.6753,-4.6804,-4.6737,-4.6799,-4.6812,-4.6803,-4.6845,-4.6833,-4.6882,-4.6813,-4.6824,-4.6875,-4.6865,-4.6953,-4.6852,-4.6913,-4.6915,-4.691,-4.7132,-4.7173,-4.7331,-4.7056,-4.706,-4.7063,0,-4.6757,-4.6787,-4.6913,-4.6915,-4.6936,-4.6992,-4.7024,-4.7066,-4.7079,-4.7068,-4.709,-4.705,-4.7119,-4.7034,-4.7129,-4.7061,-4.7084,-4.7082,-4.7088,-4.7091,-4.6997,-4.714,-4.7381,-4.7404,-4.7096,-4.7093,-4.7091,0,-4.692,-4.6992,-4.7077,-4.7089,-4.7094,-4.7135,-4.7139,-4.7149,-4.7174,-4.7203,-4.7218,-4.7255,-4.7275,-4.7304,-4.7274,-4.7215,-4.7373,-4.7286,-4.7365,-4.7366,-4.74,-4.7398,-4.7647,-4.7417,-4.7416,-4.7416,-4.7415,0,-4.711,-4.719,-4.715,-4.7202,-4.7289,-4.7249,-4.7336,-4.7333,-4.7342,-4.7391,-4.7336,-4.7384,-4.7342,-4.7387,-4.7364,-4.7445,-4.7454,-4.7447,-4.744,-4.7451,-4.7452,-4.7465,-4.7453,-4.7422,-4.7421,-4.742,-4.7418,0,-4.7307,-4.7284,-4.7371,-4.7369,-4.7371,-4.7435,-4.7433,-4.7481,-4.7467,-4.7531,-4.7544,-4.7522,-4.7571,-4.7545,-4.7595,-4.758,-4.7685,-4.7663,-4.768,-4.7674,-4.7754,-4.7746,-4.8019,-4.8052,-4.7802,-4.7804,-4.7806,0,-4.7429,-4.7489,-4.7493,-4.7523,-4.7531,-4.7579,-4.7605,-4.7568,-4.7597,-4.7617,-4.7663,-4.7707,-4.774,-4.7822,-4.7811,-4.7849,-4.7828,-4.792,-4.7833,-4.7843,-4.7828,-4.7824,-4.7829,-4.7938,-4.7941,-4.7943,-4.7945,0,-4.7648,-4.7634,-4.7673,-4.7709,-4.7741,-4.7767,-4.7789,-4.7816,-4.7779,-4.7814,-4.7864,-4.789,-4.7942,-4.7987,-4.802,-4.8023,-4.7978,-4.7973,-4.7993,-4.8005,-4.8012,-4.8008,-4.7727,-4.7966,-4.7964,-4.7963,-4.7961,-4.7961,-4.781,-4.786,-4.7871,-4.7917,-4.7929,-4.795,-4.7995,-4.7987,-4.8028,-4.8067,-4.8043,-4.8101,-4.8114,-4.8153,-4.8163,-4.8208,-4.8171,-4.82,-4.8207,-4.8215,-4.8225,-4.8006,-4.8214,-4.8213,-4.8213,-4.8212,-4.8212,0,-4.8025,-4.8029,-4.8072,-4.8104,-4.814,-4.8095,-4.8116,-4.8149,-4.8201,-4.8216,-4.8251,-4.8308,-4.8351,-4.8343,-4.8382,-4.842,-4.84,-4.8431,-4.8427,-4.8429,-4.8257,-4.8235,-4.8446,-4.8446,-4.8446,-4.8446,-4.8446,-4.8446,-4.8141,-4.8223,-4.821,-4.8297,-4.83,-4.8357,-4.8373,-4.8392,-4.8404,-4.8471,-4.8506,-4.8501,-4.8507,-4.8546,-4.8584,-4.8581,-4.8597,-4.8636,-4.8625,-4.8464,-4.8441,-4.8419,-4.8398,-4.864,-4.864,-4.8793,-4.8794,-4.8795]},{"header":{"parameterUnit":"m.s-1","parameterCategory":1,"la1":30.2991,"la2":30.254,"lo1":-89.0895,"lo2":-89.0444,"dx":0.0017,"dy":0.0017,"nx":28,"ny":28,"refTime":"2023-01-14T03:00:00:Z","depth":0,"parameterNumber":3,"parameterNumberName":"V-component_of_WINDS"},"data":[0,0,0,0,0,0,0,0,0,0,0,0,0,0,0,0,0,0,0,0,0,0,0,0,0,0,0,0,0,0,0,0,0,0,0,0,0,0,0,0,0,0,0,0,0,0,0,0,0,0,0,0,0,0,0,0,0,0,0.623,0.623,0,0.6165,0.6164,0.6163,0.6108,0.6107,0.6107,0.6106,0.6036,0.6035,0.6033,0,0,0,0,0,0,0,0,0,0,0,0,0,0.6306,0.6305,0.6231,0.623,0.6229,0.6165,0.6164,0.6163,0.6108,0.6107,0.6106,0.6106,0.6036,0.6035,0.6033,0,0,0,0,0,0,0,0,0,0,0,0,0,0.626,0.6305,0.6231,0.6194,0.619,0.6165,0.6164,0.6163,0.6108,0.6107,0.6106,0.6105,0.6037,0.6035,0.6033,0.6039,0,0,0.6027,0.6026,0,0,0,0,0,0,0,0,0.6263,0.6257,0.62,0.6196,0.6192,0.6144,0.6165,0.6121,0.6108,0.6139,0.6106,0.6105,0.6072,0.6067,0.6057,0.6036,0.6033,0.6027,0.6026,0.6025,0.6024,0,0,0,0,0,0,0,0.6266,0.626,0.6204,0.6199,0.6194,0.618,0.6172,0.6156,0.6111,0.6136,0.6132,0.6125,0.607,0.6059,0.6055,0.6032,0.6027,0.6025,0.6024,0.6023,0.6013,0.6014,0,0,0,0,0,0,0.6275,0.6263,0.6207,0.6202,0.6226,0.6179,0.6171,0.616,0.6111,0.6103,0.6126,0.6123,0.6063,0.6057,0.6052,0.6057,0.6025,0.6023,0.6022,0.6012,0.6013,0.6014,0,0,0,0,0,0,0.6277,0.6271,0.6209,0.6232,0.6223,0.6179,0.6167,0.6159,0.6148,0.6104,0.6095,0.6123,0.6062,0.6055,0.6043,0.6053,0.6022,0.602,0.6011,0.6012,0.6013,0.6066,0,0,0,0,0,0,0.628,0.6272,0.6274,0.6232,0.6222,0.6202,0.6168,0.6158,0.6145,0.6141,0.6099,0.6091,0.606,0.6046,0.6041,0.605,0.6019,0.601,0.6011,0.6013,0.6063,0.6069,0.6074,0,0,0,0,0,0.6282,0.6291,0.6274,0.6268,0.6224,0.6203,0.6197,0.6162,0.6146,0.6148,0.612,0.6092,0.6053,0.6046,0.6039,0.6048,0.6009,0.6011,0.6013,0.606,0.6068,0.6074,0,0,0,0,0,0,0.6334,0.6284,0.6266,0.6261,0.6237,0.6193,0.6195,0.6171,0.6149,0.6146,0.6103,0.6094,0.6087,0.6066,0.6058,0.6052,0.6027,0.6028,0.6066,0.6072,0.6077,0.6083,0.6017,0,0,0,0,0,0.6345,0.6332,0.629,0.6289,0.6278,0.6239,0.6228,0.6204,0.6176,0.6166,0.6136,0.611,0.6092,0.6081,0.6061,0.6059,0.605,0.6062,0.6068,0.6072,0.6074,0.6072,0.6077,0.6021,0.6021,0.6021,0,0,0.6367,0.6338,0.6333,0.6299,0.6277,0.6265,0.623,0.6219,0.6209,0.6163,0.6151,0.6129,0.6097,0.609,0.6086,0.6072,0.6087,0.6075,0.6079,0.6078,0.6075,0.608,0.6085,0.6022,0.6022,0.6021,0,0,0.6401,0.6378,0.6376,0.6355,0.6323,0.6297,0.6297,0.6257,0.6241,0.6228,0.6194,0.6182,0.6151,0.613,0.6115,0.6143,0.6117,0.6137,0.6166,0.6165,0.6169,0.6173,0.6184,0.6188,0.6139,0.6139,0.6139,0,0.6432,0.6414,0.6377,0.6369,0.6355,0.6314,0.6311,0.6293,0.6256,0.6247,0.6233,0.6194,0.617,0.6158,0.6165,0.6154,0.6152,0.6142,0.6172,0.6175,0.6178,0.6188,0.6192,0.6142,0.6141,0.6141,0.6141,0,0.6454,0.6442,0.6443,0.6411,0.6397,0.6391,0.6354,0.6344,0.6321,0.6296,0.6284,0.6253,0.6227,0.6223,0.6199,0.6208,0.6201,0.618,0.6155,0.6187,0.6195,0.6199,0.6146,0.6145,0.6144,0.6143,0,0,0.6519,0.6467,0.6468,0.6453,0.6415,0.6405,0.6397,0.6373,0.6366,0.6342,0.6334,0.631,0.6291,0.6274,0.6248,0.6247,0.6272,0.6226,0.6224,0.6236,0.628,0.6297,0.6302,0.6254,0.6255,0.6255,0.6283,0,0.6548,0.6533,0.6501,0.6496,0.6484,0.6445,0.6439,0.6415,0.6392,0.6378,0.6351,0.6335,0.631,0.63,0.6297,0.627,0.628,0.6267,0.6247,0.6247,0.6257,0.6306,0.6324,0.6352,0.6286,0.6287,0.6287,0,0.6579,0.6559,0.6554,0.6518,0.6512,0.6507,0.6483,0.647,0.6442,0.6425,0.6407,0.6379,0.6368,0.6345,0.633,0.6322,0.6312,0.6297,0.6297,0.6294,0.627,0.6306,0.636,0.6364,0.6292,0.6291,0.6291,0,0.6629,0.66,0.6593,0.6581,0.6539,0.6536,0.6518,0.6489,0.6477,0.6456,0.6447,0.6425,0.6412,0.6395,0.6361,0.6347,0.635,0.6324,0.6336,0.6337,0.6339,0.6339,0.6393,0.6331,0.6331,0.6331,0.6331,0,0.6665,0.6663,0.6615,0.6611,0.6608,0.6571,0.6568,0.6547,0.6521,0.6512,0.6476,0.6468,0.6424,0.641,0.6384,0.6376,0.637,0.6356,0.6349,0.636,0.6362,0.6353,0.6351,0.6332,0.6332,0.6332,0.6332,0,0.6719,0.6687,0.6677,0.6638,0.6628,0.6628,0.6594,0.6589,0.6564,0.6552,0.6548,0.6508,0.649,0.6455,0.6427,0.6409,0.6408,0.6395,0.6418,0.6414,0.6428,0.6428,0.6478,0.6484,0.6418,0.6419,0.642,0,0.6745,0.6743,0.6704,0.6696,0.668,0.6667,0.6655,0.6618,0.6607,0.6575,0.6574,0.6553,0.6536,0.6509,0.6477,0.6456,0.6443,0.6462,0.644,0.6451,0.6444,0.6445,0.6445,0.6468,0.6469,0.6469,0.647,0,0.6795,0.6779,0.6764,0.6743,0.673,0.6711,0.6691,0.6686,0.6644,0.6633,0.6616,0.6602,0.6574,0.6555,0.6529,0.6509,0.6483,0.6477,0.6479,0.649,0.6504,0.6498,0.6433,0.6476,0.6476,0.6475,0.6475,0.6475,0.6836,0.6833,0.6806,0.679,0.6771,0.6753,0.6746,0.6721,0.6706,0.6682,0.666,0.6645,0.6616,0.6579,0.6562,0.6549,0.6535,0.6538,0.6539,0.654,0.6545,0.6506,0.6543,0.6543,0.6543,0.6543,0.6543,0,0.6885,0.6865,0.6851,0.6825,0.6812,0.6789,0.6765,0.6756,0.6744,0.672,0.6704,0.6684,0.6665,0.6632,0.6611,0.6606,0.6594,0.6602,0.6602,0.6598,0.6557,0.6558,0.6613,0.6613,0.6613,0.6613,0.6613,0.6613,0.6909,0.6903,0.6884,0.6868,0.6848,0.6834,0.6823,0.6806,0.6787,0.6767,0.6752,0.6731,0.6703,0.668,0.6661,0.6652,0.6646,0.6658,0.6645,0.6608,0.6601,0.6595,0.6596,0.6657,0.6657,0.6688,0.6688,0.6688]}]]